Theta_e
313 312 312 313 313 313 312 313 313 313 313 311 311 311 311 311 310 311 311 311 311 310 310 310 311 311 312 312 312 311 310 309 308 308 307 307 308 308 308 307 307 306 306 305 304 303 302 301 301 301 302 302 302 303 303 304 304 305 305 306 306 307 307 307 306 306 305 305 305 304 304 303 302 302 302 301 301 300 299 298 297 296 296 297 299 300
310 310 310 311 312 312 311 312 312 312 312 311 311 311 311 311 310 311 311 311 310 310 310 310 310 311 311 311 311 310 310 309 308 307 307 307 307 307 307 306 306 306 305 305 304 302 301 300 300 300 300 301 301 302 302 303 303 304 304 305 305 306 306 306 306 306 305 305 304 303 303 302 302 301 301 300 300 299 298 297 296 295 295 297 298 299
308 309 309 309 310 311 310 310 310 310 311 311 311 310 311 310 310 309 310 310 310 309 309 309 310 311 311 311 310 310 309 308 307 306 306 306 306 306 306 306 305 305 304 304 303 302 300 299 299 299 299 299 300 301 301 302 302 303 303 304 304 304 304 305 305 305 304 304 303 302 302 301 301 300 300 299 299 298 297 296 295 294 294 296 297 298
309 309 308 308 308 309 309 309 309 309 309 310 310 310 310 310 309 309 309 309 309 309 309 309 309 310 310 310 309 309 308 307 306 306 305 305 305 305 305 305 304 304 303 303 302 301 299 298 297 297 297 298 299 299 300 301 301 302 302 303 303 303 303 303 303 303 303 302 302 301 301 300 300 299 298 298 297 297 296 295 294 293 293 295 296 298
309 309 308 308 307 307 308 308 308 308 308 308 309 309 308 308 308 308 309 309 309 309 308 309 309 310 310 309 309 308 307 306 306 305 305 304 304 304 304 304 304 303 303 302 301 300 298 297 296 296 295 296 297 297 298 299 300 301 301 302 302 302 302 302 302 302 302 301 301 300 300 299 299 298 298 297 296 296 295 294 293 292 292 294 296 297
307 308 308 307 306 306 306 307 307 307 307 307 307 307 307 307 308 308 308 308 309 309 308 309 309 309 309 309 309 308 306 306 305 305 304 304 303 303 303 303 303 303 302 301 300 299 297 296 295 294 294 294 294 295 296 297 298 299 300 300 301 301 301 301 301 301 300 300 300 299 299 298 298 297 297 296 296 295 295 294 293 291 291 293 295 297
306 306 306 306 305 305 305 306 306 307 307 306 306 306 306 306 307 307 308 308 308 308 308 308 308 308 309 309 308 307 306 305 304 304 303 303 302 302 302 302 302 302 301 301 299 298 296 295 294 293 292 292 292 292 292 293 294 295 297 298 299 300 300 300 300 300 299 299 299 298 298 298 297 297 296 296 295 295 294 293 293 292 292 293 295 296
305 305 305 305 305 304 304 304 305 306 306 306 306 306 305 306 306 307 307 308 308 308 308 308 307 307 307 307 307 306 305 304 303 302 302 302 301 301 301 301 301 301 301 300 299 298 296 295 293 292 292 291 291 290 290 291 291 292 293 295 296 297 298 298 298 298 298 298 298 298 297 297 297 296 296 295 295 294 294 293 293 293 293 294 295 296
306 304 304 305 305 304 303 303 303 304 305 306 306 305 305 305 305 306 306 306 306 307 307 306 306 305 305 305 305 305 304 303 302 302 301 301 300 300 300 300 300 300 300 299 299 297 296 294 293 292 291 290 290 289 289 289 289 289 289 291 292 294 295 296 296 297 297 297 297 297 297 296 296 296 295 295 295 294 294 293 293 293 294 294 295 296
307 305 304 304 304 304 303 302 302 303 304 305 305 305 304 304 304 304 304 304 305 305 305 305 305 304 304 303 303 303 303 302 302 301 301 300 300 300 299 299 299 299 299 298 298 297 295 294 293 292 291 290 289 288 288 287 287 287 287 288 289 291 293 293 294 295 295 295 295 295 296 295 295 295 295 294 294 294 293 292 292 293 295 295 296 297
306 305 304 303 303 304 304 303 302 302 303 303 303 303 303 303 303 302 302 302 303 304 304 304 304 304 303 302 302 302 302 301 300 300 300 300 299 299 298 298 298 298 298 298 297 296 295 294 293 293 292 290 289 288 287 286 286 286 286 287 288 289 290 291 292 293 293 294 294 294 294 294 294 294 294 293 293 293 293 292 291 292 295 295 296 297
305 305 304 303 302 302 302 302 302 302 302 302 301 301 301 302 302 302 302 302 302 302 302 302 303 303 302 302 301 301 301 300 300 299 298 298 298 297 297 297 296 296 296 296 296 295 294 293 293 292 292 291 289 288 287 286 286 285 286 287 287 288 289 289 290 291 291 292 292 293 293 293 293 293 292 292 292 292 291 290 291 293 295 296 296 297
306 305 304 303 302 301 301 300 300 300 300 300 300 300 300 300 301 302 302 302 301 301 302 302 302 302 302 301 301 300 300 299 299 298 298 297 297 296 296 296 295 295 296 296 295 294 293 292 292 292 292 291 290 288 287 286 285 285 286 286 287 287 288 288 289 289 290 291 291 291 292 292 292 292 291 291 290 290 290 289 291 293 296 296 297 298
305 304 303 302 301 301 300 300 299 299 299 300 300 301 301 301 301 301 301 301 301 301 301 301 301 301 301 300 300 300 299 299 298 298 297 297 296 296 296 295 295 295 296 296 295 294 293 292 292 292 292 291 290 289 287 286 285 285 286 286 286 287 288 288 289 289 289 290 290 290 291 291 291 290 290 290 289 289 288 289 292 294 296 296 297 298
305 304 302 301 301 300 300 300 300 300 300 300 300 301 301 301 301 301 301 300 300 299 300 299 299 299 299 299 299 299 299 298 298 297 296 296 295 295 295 295 295 295 296 296 295 294 293 293 293 293 293 292 291 289 287 286 285 285 285 286 286 287 287 288 288 289 289 290 290 290 290 290 290 290 290 290 289 289 289 290 292 294 296 296 297 298
305 304 303 302 301 301 301 300 301 301 300 300 300 300 300 300 300 300 300 299 299 298 298 297 297 297 297 297 298 298 298 298 297 296 296 295 295 294 294 295 295 295 295 295 295 294 293 293 293 293 293 292 291 289 287 286 285 285 285 286 286 286 287 288 288 289 289 290 290 290 290 291 291 290 290 290 289 289 289 291 293 294 295 296 297 298
305 305 304 304 303 302 301 301 301 301 301 300 300 300 300 300 300 300 300 299 298 297 297 297 297 297 296 296 296 297 297 297 296 296 295 294 294 293 293 294 295 295 295 295 295 294 293 293 293 294 293 292 290 289 287 286 285 285 285 286 286 286 286 287 288 289 289 290 290 291 291 291 291 291 290 290 290 290 290 291 293 294 295 296 296 297
306 305 305 305 304 303 301 300 301 301 301 300 300 300 300 301 301 300 299 299 298 297 297 298 298 298 298 296 295 295 296 296 296 295 294 293 293 293 292 293 294 295 295 295 294 294 293 294 294 294 293 292 290 289 287 286 286 286 286 287 287 287 286 287 288 288 289 290 291 291 291 291 291 291 290 290 290 290 290 291 293 294 294 295 296 297
306 306 306 306 305 304 302 300 300 300 300 300 299 299 300 300 300 300 299 298 298 298 298 298 299 299 299 298 296 295 295 296 295 294 293 292 292 292 292 293 293 294 294 294 294 293 293 293 294 293 293 292 290 288 286 286 286 287 287 287 287 287 287 287 287 288 289 290 290 291 291 291 291 291 290 290 289 289 290 291 292 293 294 295 295 296
306 306 306 306 306 304 301 300 300 301 300 300 300 300 299 299 299 299 299 298 298 298 299 299 299 299 299 298 297 295 295 295 295 294 292 291 291 291 291 292 292 293 293 293 293 293 293 293 294 293 293 291 289 287 286 286 286 287 288 288 288 287 287 287 287 288 289 290 290 291 291 291 291 290 290 290 289 289 289 290 291 292 293 294 294 295
306 306 306 306 306 304 302 301 301 301 301 301 301 300 299 299 299 298 298 298 298 298 298 298 299 299 299 298 297 296 295 295 295 294 292 291 290 291 291 291 292 292 292 293 293 293 293 293 293 293 293 291 289 287 285 285 286 287 288 288 288 288 287 287 288 288 289 290 290 290 291 291 291 290 290 290 289 289 289 290 290 292 293 293 294 294
306 305 305 306 305 305 304 302 302 302 302 302 301 300 300 299 298 298 298 298 297 297 298 299 299 299 299 299 298 297 296 296 295 294 293 290 289 289 290 291 291 291 292 292 292 292 292 293 293 293 292 290 288 286 285 285 286 287 288 288 288 288 287 287 288 289 289 290 290 290 290 290 290 290 290 290 289 289 289 289 290 290 291 292 293 293
306 306 305 305 305 305 304 304 303 303 303 303 303 302 301 300 300 299 299 298 298 298 298 298 298 298 298 298 298 297 296 296 296 295 293 291 289 289 289 290 290 291 291 292 292 292 292 292 292 292 291 289 287 286 285 286 287 288 288 288 288 288 287 288 288 289 289 290 290 290 290 290 290 290 290 290 289 289 289 289 289 289 290 291 292 293
307 306 306 306 306 305 305 305 304 304 303 303 303 303 303 302 302 301 300 299 299 298 298 298 297 297 297 297 297 296 296 295 295 295 294 293 291 290 289 289 289 290 290 291 292 292 292 292 292 291 290 288 286 285 285 286 287 288 288 288 288 287 287 288 289 289 289 290 290 290 290 290 290 290 290 290 290 289 289 289 289 289 289 290 291 291
307 307 306 306 306 306 305 305 305 304 304 304 303 303 302 302 302 301 300 299 298 297 297 296 296 295 294 295 295 294 295 294 294 294 294 293 292 290 290 289 289 289 290 291 291 291 292 292 291 291 290 287 286 285 285 287 288 288 288 288 288 287 287 288 289 289 290 290 290 290 290 290 290 290 290 289 289 289 289 289 289 289 289 289 289 290
307 306 306 306 306 305 305 305 305 305 304 304 303 302 301 301 300 300 299 297 297 296 295 294 293 293 292 292 292 293 293 294 294 294 294 293 291 290 290 289 289 290 290 290 290 290 291 291 290 290 289 287 285 285 285 287 288 288 288 288 288 288 288 289 289 289 290 290 290 290 290 290 290 289 289 289 289 289 289 289 289 289 289 289 289 289
306 306 305 305 305 305 305 305 304 304 304 304 304 302 301 301 300 298 297 296 296 295 295 294 293 291 290 290 291 291 292 293 293 293 294 293 291 289 289 289 289 289 289 289 289 289 289 289 289 288 287 286 285 285 285 287 288 288 288 288 288 288 288 289 289 289 290 290 290 290 290 290 289 289 289 289 289 289 289 289 289 289 289 289 288 288
305 304 304 304 304 304 304 304 304 304 304 304 303 302 301 301 299 297 295 295 295 295 295 295 293 291 290 290 290 291 292 292 293 293 293 293 292 290 289 289 289 289 289 288 288 288 288 288 287 287 286 285 284 284 285 287 288 288 288 288 288 288 289 289 289 289 289 289 289 289 289 289 289 289 289 289 289 289 289 289 288 288 288 288 288 288
303 303 303 303 303 303 303 303 303 304 304 303 303 302 301 301 300 298 297 296 296 295 295 295 294 292 291 290 290 290 290 291 292 292 292 293 291 290 289 289 288 288 288 287 286 286 286 286 286 285 284 284 284 284 285 287 288 289 288 288 288 288 289 289 289 289 289 289 289 289 289 289 289 289 289 289 288 288 288 288 288 288 288 288 288 288
301 301 302 302 302 302 303 303 303 303 303 303 302 301 301 301 301 300 299 298 296 295 295 295 294 293 291 290 289 289 289 290 291 292 292 292 291 289 288 287 287 287 287 286 285 284 285 285 284 284 284 284 284 284 285 287 288 288 288 288 288 288 289 289 289 289 289 289 289 289 289 289 289 289 288 288 288 288 288 288 288 288 288 288 288 288
300 300 300 301 301 301 302 302 302 302 302 301 301 301 300 301 301 300 300 299 297 296 295 295 294 292 291 291 290 289 289 290 291 292 292 292 290 289 288 287 286 287 287 287 286 284 284 284 284 284 284 283 284 284 285 287 288 288 288 288 288 288 288 289 289 289 289 289 289 289 289 289 288 288 288 288 288 288 288 288 288 288 287 287 287 287
299 299 299 299 300 300 300 301 301 301 301 300 300 300 300 300 300 300 300 299 298 297 296 295 294 293 292 292 293 292 291 291 291 291 291 291 290 289 288 287 286 286 287 288 288 286 284 284 284 284 284 284 284 284 286 287 287 288 288 288 288 288 288 288 288 288 288 289 288 288 288 288 288 288 288 288 288 288 288 288 288 287 287 287 287 287
298 298 298 298 298 299 299 299 300 299 299 299 299 299 299 299 299 299 299 299 299 298 297 296 294 293 292 293 293 293 292 292 292 292 291 291 290 289 288 287 286 286 286 287 288 288 286 285 285 285 284 284 285 285 286 287 287 288 288 288 288 288 288 288 288 288 288 288 288 288 288 288 288 288 288 288 288 288 288 288 287 287 287 287 287 287
297 297 297 297 297 297 298 298 298 298 298 298 298 298 298 298 298 298 298 298 298 298 297 297 295 294 293 292 293 293 292 293 293 293 292 291 290 289 288 287 286 286 286 286 286 286 286 286 285 285 285 285 285 286 286 287 287 287 287 287 288 288 288 288 288 288 288 288 288 288 287 287 287 288 287 287 287 287 288 288 287 287 287 287 287 287
296 296 296 296 296 297 297 297 297 297 297 297 297 297 297 298 298 298 297 297 297 297 297 297 297 296 295 293 292 292 292 293 293 293 292 291 291 290 288 287 286 286 285 285 286 285 285 285 285 285 285 285 285 286 286 287 287 287 287 287 288 287 288 288 288 288 287 287 287 287 286 286 287 287 287 287 287 287 287 288 287 287 287 287 287 287
295 294 295 295 295 296 296 296 296 296 296 296 296 296 296 297 297 297 297 297 296 296 296 296 296 296 296 296 295 294 294 294 294 293 293 292 292 291 289 288 287 287 286 285 286 286 285 285 285 285 285 285 285 285 286 287 287 287 287 287 287 287 287 287 287 287 287 287 286 286 285 285 285 285 286 286 286 287 287 287 287 287 287 287 287 287
293 293 293 294 294 295 295 295 295 295 295 296 296 295 295 296 296 296 296 296 296 296 295 295 295 295 295 296 296 296 296 296 295 294 294 293 293 292 291 289 288 288 287 286 286 286 286 285 285 285 285 285 285 285 286 286 287 287 287 287 287 287 287 287 287 287 287 286 286 285 285 285 285 285 285 285 285 286 286 287 287 287 287 287 287 287
292 292 292 293 293 294 294 294 294 294 295 295 295 295 295 295 295 296 295 295 295 295 295 295 295 295 295 295 295 295 295 295 295 295 294 294 293 292 291 290 289 288 288 288 287 286 286 285 284 284 284 285 285 285 285 286 286 286 287 287 287 287 287 287 287 287 286 286 286 285 285 285 285 284 284 284 284 285 286 286 286 287 287 287 287 287
291 291 291 292 292 293 293 293 293 293 294 294 294 294 294 294 294 295 295 295 294 294 294 294 294 294 294 294 294 294 294 294 294 294 294 294 293 292 291 291 289 288 288 288 288 287 286 286 285 284 284 284 285 285 285 286 286 286 286 286 286 287 287 287 287 286 286 286 286 285 285 285 285 285 284 284 284 284 285 286 286 286 286 287 287 287
291 291 291 291 291 292 292 292 293 293 293 293 293 293 293 293 293 294 294 294 294 294 294 294 294 294 294 294 294 293 293 293 293 293 293 293 292 292 291 291 290 289 288 288 287 287 287 287 286 285 285 285 285 285 285 285 286 286 286 286 286 286 286 286 286 286 286 286 286 285 285 285 285 285 285 284 284 284 285 285 285 286 286 286 286 287
290 290 290 290 291 291 292 292 292 292 292 292 292 292 292 292 293 293 292 293 293 293 293 293 293 293 293 293 293 293 292 292 292 291 291 291 291 291 290 290 291 290 289 288 287 287 287 287 286 286 285 285 285 285 285 285 285 286 286 286 286 286 286 286 286 286 286 286 286 285 285 285 285 285 285 284 284 284 284 285 285 285 285 285 286 286
290 290 290 290 290 290 291 291 291 291 291 291 291 292 292 292 292 292 292 291 291 292 292 292 292 292 292 292 292 292 291 291 291 290 290 290 290 289 289 289 290 290 290 288 287 286 286 287 286 286 285 285 285 285 285 285 285 285 285 285 286 286 286 285 286 286 286 286 286 285 285 285 285 285 285 284 284 284 284 284 284 285 285 285 285 285
290 290 290 290 290 290 290 290 290 290 290 290 291 291 291 291 291 291 291 291 291 291 291 291 291 291 291 290 290 290 290 290 289 289 289 288 288 288 288 288 288 289 289 288 287 286 286 286 286 286 286 286 285 285 285 285 285 285 285 285 285 285 285 285 285 285 285 286 285 285 285 285 285 285 284 284 284 284 284 284 284 284 284 284 285 285
290 290 290 289 289 290 290 290 290 290 290 290 290 290 290 290 291 291 291 290 290 290 290 290 290 290 290 289 288 288 288 288 288 288 288 287 287 287 287 287 287 288 288 288 287 286 286 285 285 285 285 286 286 285 285 285 285 285 285 285 285 285 285 285 285 285 285 285 285 285 285 285 285 284 284 284 283 284 284 284 284 284 284 285 285 285
289 289 289 289 289 288 288 288 289 289 289 289 289 289 289 289 290 290 290 290 289 289 289 289 289 289 287 287 286 286 286 286 286 287 287 287 287 287 287 287 287 287 287 288 288 287 286 285 285 285 285 285 286 285 285 285 285 285 285 285 285 285 285 285 285 285 285 285 285 285 285 284 284 284 283 283 283 283 283 284 284 284 284 285 285 285
289 288 288 288 288 287 287 288 288 288 288 288 288 288 288 288 289 289 289 289 289 289 288 289 289 287 286 285 285 285 285 285 285 285 286 286 286 286 286 286 287 287 287 287 287 287 286 286 285 285 285 285 285 285 285 285 285 285 285 285 285 285 285 284 284 284 285 285 285 285 284 284 284 283 283 283 283 283 283 283 284 284 284 285 285 285
288 288 287 287 287 286 286 286 286 286 286 286 286 287 287 287 287 288 288 288 288 288 288 287 287 287 286 285 285 285 284 284 284 285 285 285 285 285 286 286 286 286 286 286 285 285 285 285 285 285 285 285 285 285 285 285 285 285 285 285 284 284 284 284 284 284 284 284 284 284 284 283 283 283 283 283 283 283 283 283 284 284 284 284 284 285
288 287 287 286 286 285 285 285 285 285 285 285 285 285 286 286 286 286 287 287 287 287 286 286 286 286 285 285 285 285 284 284 284 284 284 284 284 284 285 285 285 285 285 284 284 284 284 284 285 285 285 285 285 285 285 285 285 285 285 285 284 284 284 284 284 284 284 284 284 284 283 283 283 283 283 283 282 283 283 283 283 284 284 284 284 284
288 287 286 286 285 284 284 284 284 284 284 284 284 284 284 285 285 285 286 286 286 286 285 285 284 284 284 284 284 284 284 284 284 284 284 284 284 284 284 284 284 284 284 284 284 284 284 284 284 285 285 285 285 285 285 285 285 285 285 284 284 284 284 283 283 283 283 283 283 283 283 283 283 283 283 283 282 283 283 283 283 284 284 284 284 284
287 286 286 285 285 284 284 283 283 283 283 283 283 283 283 283 284 284 285 285 285 285 285 284 284 283 283 282 283 283 283 283 283 283 283 283 284 284 284 284 284 284 284 284 284 284 284 284 284 285 285 285 285 285 285 285 285 284 284 284 284 284 283 283 283 283 283 283 283 283 283 283 283 283 282 282 282 282 283 283 283 283 284 284 284 284
286 286 285 285 285 284 284 283 283 283 283 283 282 282 282 282 282 282 283 283 284 284 284 284 284 283 283 282 282 282 282 282 282 282 282 283 283 283 283 283 284 284 283 283 283 284 284 284 283 284 284 284 284 284 285 285 285 284 284 284 284 284 283 283 283 283 283 283 283 283 283 283 283 282 282 282 282 282 282 283 283 283 283 284 284 284
Wind_Speed
25 25 25 25 25 24 23 23 23 23 22 21 20 19 20 20 19 19 19 19 19 19 19 19 20 21 22 22 21 20 19 17 16 15 13 12 11 9 8 7 6 5 5 5 5 5 6 6 7 8 8 9 9 9 9 10 10 9 8 8 7 7 7 7 7 7 6 6 6 6 6 6 6 6 6 6 4 3 2 1 1 2 4 5 5 5
24 24 22 22 22 22 21 21 21 20 19 19 19 20 20 20 20 20 19 19 20 19 19 19 20 22 23 22 22 21 19 18 16 15 14 12 11 10 9 8 6 6 5 5 5 5 6 6 7 8 8 9 9 10 10 10 11 11 11 11 10 9 9 8 8 7 7 8 8 8 7 7 6 6 6 5 4 3 3 2 2 3 5 6 5 4
23 22 21 20 19 20 21 20 19 17 16 17 18 20 20 20 20 20 20 20 20 19 19 20 21 23 23 23 22 21 19 18 16 15 14 13 11 10 9 7 6 5 5 4 5 5 6 6 7 8 8 9 10 10 10 10 11 12 12 12 12 12 12 11 11 11 11 10 10 9 8 8 7 6 5 5 4 3 3 2 2 3 5 6 5 4
23 22 21 20 19 19 20 20 19 16 15 15 17 19 19 20 20 20 20 20 20 19 19 20 22 23 24 23 22 20 19 18 16 15 14 13 11 10 9 7 6 5 5 4 4 5 5 6 7 7 8 9 9 10 10 10 11 12 12 13 13 13 14 14 13 13 13 12 11 10 9 8 7 6 5 5 4 3 2 2 2 3 5 6 5 4
22 22 22 21 19 18 19 20 19 17 16 16 17 18 19 19 20 20 20 20 20 19 20 20 22 23 24 23 22 20 19 17 16 15 14 13 11 10 9 7 6 5 5 4 4 4 5 6 6 7 8 8 9 10 10 11 11 11 12 13 13 14 14 14 14 13 13 12 11 10 9 8 7 7 6 5 4 3 2 1 1 3 5 6 6 4
20 21 21 20 19 18 20 21 20 19 18 17 18 19 20 20 21 21 21 21 21 21 21 22 23 23 24 23 22 20 18 17 16 15 14 13 12 11 9 8 7 6 5 4 4 5 5 6 6 7 7 8 9 9 10 11 11 12 12 12 13 13 14 14 13 13 12 11 11 10 9 9 8 7 6 5 4 3 2 1 1 3 5 6 6 5
18 20 21 20 19 19 21 22 22 21 21 20 20 20 20 21 22 22 23 23 23 23 23 24 24 24 23 23 21 20 18 17 16 15 14 13 12 11 10 9 7 6 5 5 5 5 5 6 6 7 7 7 8 9 9 10 11 12 13 13 13 13 14 13 13 13 12 11 11 10 10 9 9 8 7 6 5 4 3 2 2 3 5 6 7 6
18 20 20 20 20 20 21 22 23 22 22 23 23 22 22 22 22 23 24 24 24 25 25 25 25 24 23 22 21 20 19 18 17 16 15 14 13 12 10 9 8 7 6 6 5 5 6 6 6 6 6 6 7 8 8 9 10 11 12 13 14 14 14 14 13 13 12 12 11 11 10 10 9 9 8 7 6 5 4 3 3 4 5 6 7 7
21 21 21 21 21 21 21 21 22 23 23 23 24 24 24 23 23 23 23 24 25 25 26 26 25 24 23 22 21 20 20 19 18 17 16 15 14 13 11 10 9 8 7 6 6 6 6 6 6 6 5 5 5 6 7 8 9 10 11 12 13 14 14 13 13 13 12 12 11 11 10 10 9 9 8 8 7 6 5 4 4 5 5 6 6 7
22 22 21 21 22 22 20 19 21 23 23 23 23 24 24 25 24 23 22 23 24 25 26 26 25 24 23 22 22 21 21 20 19 18 17 16 15 14 12 11 10 9 8 7 7 6 6 6 6 5 4 4 4 4 5 6 7 8 9 11 12 13 13 13 13 13 13 12 12 11 11 10 10 9 9 8 8 8 7 6 6 7 7 6 6 6
20 21 20 20 21 21 20 21 22 24 24 23 22 22 23 24 25 23 22 22 24 25 24 25 25 25 24 23 23 22 22 21 20 18 17 16 15 14 13 12 11 10 9 8 7 7 6 6 5 4 3 3 2 3 3 4 5 6 8 9 10 11 12 13 13 13 13 13 12 12 11 11 10 10 9 9 9 8 7 6 7 8 9 8 7 6
18 19 19 19 20 20 20 21 23 25 25 23 20 18 19 23 25 24 23 22 23 24 24 25 25 26 25 25 25 24 23 23 22 20 19 17 16 15 14 13 12 11 10 9 8 8 7 6 5 3 2 2 1 1 2 3 4 5 6 7 9 10 11 11 12 12 12 12 12 11 11 11 10 10 9 9 9 8 7 7 8 10 10 9 8 7
18 18 17 18 19 19 19 20 22 23 24 23 20 18 18 22 24 23 22 23 24 25 26 26 26 26 27 26 26 25 25 24 23 22 20 19 18 17 16 16 15 14 12 11 10 9 8 6 5 3 2 1 1 0 1 2 3 4 6 7 8 9 10 10 11 11 11 11 11 11 11 10 10 9 9 9 8 8 7 9 10 11 11 10 9 7
17 17 16 16 17 19 20 21 22 21 22 22 22 22 22 24 25 23 21 20 22 25 26 25 26 26 27 27 27 27 26 25 24 23 22 21 20 19 19 18 17 15 14 12 11 10 9 7 5 3 2 1 0 0 1 2 3 5 6 7 8 9 10 10 10 10 10 10 10 10 10 10 9 9 8 8 8 8 9 11 12 13 12 11 10 8
17 16 15 14 15 18 20 21 22 22 23 23 22 22 23 24 24 23 21 19 20 22 23 23 23 24 25 26 27 27 27 27 25 24 23 22 21 20 20 19 18 16 14 13 12 10 9 7 5 3 2 1 0 1 1 2 4 5 6 7 8 9 9 10 10 10 9 9 9 9 9 9 9 8 8 8 8 9 11 13 14 14 13 12 11 10
18 18 16 15 16 18 20 22 22 22 22 22 22 22 21 22 23 23 21 20 20 21 21 19 17 17 20 25 27 28 28 27 26 25 25 23 22 22 21 20 19 17 15 14 12 11 9 7 5 3 2 1 1 1 2 3 4 5 6 7 8 9 9 10 10 10 10 10 9 9 9 9 9 9 9 9 10 11 13 14 14 14 13 13 12 11
19 19 18 17 17 18 21 22 22 22 21 22 23 24 23 23 24 23 22 22 22 22 19 18 14 11 12 18 24 28 29 27 26 25 25 24 24 23 22 21 20 19 17 15 13 11 9 7 5 4 2 2 2 2 2 3 4 5 6 7 8 8 9 10 10 11 11 10 10 10 10 10 10 9 9 10 11 12 14 15 15 15 14 13 13 12
19 20 19 19 18 19 20 21 21 21 22 22 23 24 25 24 24 24 23 23 22 21 19 19 17 13 12 13 20 28 30 28 26 24 23 24 24 24 23 21 20 19 18 16 14 12 10 8 6 4 3 2 2 2 3 3 4 5 6 7 7 8 9 10 11 11 11 11 11 10 10 10 10 10 10 10 12 13 14 15 15 15 15 14 13 13
20 22 21 21 20 20 20 21 22 22 22 23 23 23 23 23 23 23 23 24 23 23 21 20 19 18 16 15 22 29 31 30 26 23 21 21 24 25 24 22 21 20 19 17 15 13 11 9 7 5 4 3 3 3 3 4 5 6 7 7 7 8 9 10 11 12 12 12 11 10 10 10 10 10 10 10 11 13 14 15 15 15 15 15 14 13
21 22 23 23 22 20 20 22 24 25 25 25 25 24 22 22 22 22 22 23 23 24 23 21 20 18 17 17 23 29 32 31 26 22 20 21 23 25 25 23 22 21 20 18 16 13 11 10 8 6 5 4 4 4 5 5 6 7 7 7 7 7 9 10 12 13 13 12 11 11 10 10 10 10 9 10 11 12 13 14 15 15 15 15 14 14
21 22 24 24 23 21 21 24 26 27 27 26 26 24 23 22 22 21 22 22 22 22 21 20 19 19 19 19 23 28 33 32 27 22 19 20 23 25 26 25 23 22 21 19 16 14 12 10 9 7 6 5 5 6 6 7 7 8 8 8 7 8 9 11 12 13 13 12 11 11 11 10 10 10 9 9 10 11 12 14 15 15 15 15 14 14
22 23 25 25 24 23 22 24 26 28 28 27 27 25 23 22 22 21 22 22 22 21 20 20 20 19 19 20 23 27 33 34 30 24 19 17 20 24 26 26 24 23 22 20 17 15 13 11 9 8 7 6 6 7 7 8 9 9 9 8 8 8 10 11 12 12 12 12 11 11 11 10 10 10 9 9 9 9 11 12 14 14 15 14 14 13
23 23 24 25 26 25 24 24 25 27 28 28 28 27 25 26 26 25 24 24 24 23 22 22 21 20 19 19 21 25 31 34 32 26 21 15 17 23 27 27 25 22 22 20 18 16 14 12 10 9 8 8 8 8 8 9 9 9 9 9 9 9 10 12 12 12 12 12 11 11 11 11 10 10 10 9 9 9 10 11 12 13 14 14 14 13
24 23 24 25 26 26 25 24 24 25 26 27 27 26 26 26 26 26 26 26 26 25 24 23 21 19 17 17 19 24 29 33 33 28 21 16 18 23 28 27 25 22 21 20 18 16 14 13 11 10 9 9 9 9 10 10 10 10 10 9 9 10 11 12 12 12 12 12 12 11 11 11 11 10 10 10 10 9 9 10 11 12 12 13 13 13
24 23 23 24 25 26 25 23 23 23 24 25 26 25 24 24 23 23 24 24 25 24 23 20 17 15 15 17 21 25 28 32 33 30 23 17 17 22 28 28 26 23 21 20 19 16 15 13 12 11 11 11 10 11 11 11 11 11 10 10 10 11 12 13 12 12 12 12 12 12 11 11 11 11 11 11 11 10 10 10 10 11 11 12 13 13
23 22 21 21 23 24 24 22 21 20 20 22 24 26 25 24 23 22 22 22 23 22 21 17 14 13 15 18 21 24 28 32 33 31 25 19 17 20 26 28 27 24 22 20 19 16 15 13 13 12 12 12 12 12 12 12 11 11 11 11 11 12 13 13 12 12 12 12 12 12 12 11 11 11 12 12 11 11 10 10 10 10 11 12 12 13
20 19 19 19 20 21 21 20 18 17 18 20 23 25 26 26 24 22 21 22 23 23 20 15 11 10 12 15 18 22 28 31 33 32 28 22 18 18 24 27 27 24 21 20 18 16 14 14 13 13 13 13 14 14 13 13 12 12 11 11 11 12 13 13 13 12 12 12 12 12 12 12 12 12 12 12 12 11 11 10 10 10 10 11 12 12
18 17 17 17 18 18 18 17 16 16 17 19 23 25 26 26 25 23 22 23 25 23 20 17 12 9 10 12 16 21 27 31 33 33 30 24 18 16 23 27 27 23 20 19 17 15 14 14 13 14 14 14 15 15 15 13 12 12 12 12 12 13 13 13 13 13 12 12 12 12 12 12 12 12 12 12 12 11 11 11 10 10 10 11 11 11
17 17 16 16 16 16 16 16 15 16 17 20 23 25 27 27 26 25 25 26 25 23 20 18 15 13 12 13 16 20 24 29 32 33 31 24 17 16 23 26 26 24 20 18 15 13 14 14 14 14 14 15 15 16 15 14 13 13 12 12 12 13 13 13 13 13 13 12 12 12 12 12 12 12 12 12 12 11 11 11 11 11 11 10 10 10
17 17 16 15 15 15 15 15 16 16 17 20 23 25 26 26 26 25 26 27 26 24 20 18 17 16 14 13 12 12 16 25 31 33 31 23 17 17 22 26 26 25 22 18 12 8 10 13 14 15 14 15 16 17 16 16 15 14 14 13 13 13 13 13 13 13 13 12 12 12 12 12 12 12 12 12 12 11 11 11 11 11 11 10 10 10
18 17 17 16 16 16 15 16 16 17 18 20 22 24 26 25 24 24 25 26 26 25 21 19 18 19 18 14 8 4 8 22 31 33 31 24 19 19 24 26 26 26 24 20 12 5 4 10 14 16 15 16 17 18 18 17 17 16 16 15 14 14 14 13 13 13 13 12 12 12 12 12 12 12 11 12 12 11 11 11 11 11 10 10 10 9
19 18 18 17 16 16 16 16 17 17 19 21 22 24 25 25 24 24 24 24 25 25 24 22 21 22 22 18 13 9 10 22 31 34 32 25 21 22 25 27 27 27 26 23 16 9 3 7 13 17 17 17 18 19 19 18 18 18 17 17 16 15 14 14 14 14 13 13 13 13 13 12 12 12 11 11 11 11 11 11 11 10 10 10 9 9
19 18 18 17 17 17 17 17 18 19 21 22 23 24 25 25 25 24 23 23 24 25 25 25 24 24 23 21 18 15 15 22 29 34 34 28 23 22 25 26 27 27 27 24 19 11 6 8 12 16 17 19 19 19 19 19 19 19 18 18 17 16 15 15 16 16 15 15 14 13 13 12 12 11 11 11 11 11 10 10 10 10 10 10 9 10
19 19 19 19 19 19 19 20 21 22 23 24 24 25 25 25 25 25 24 23 22 23 25 26 26 26 24 21 18 16 15 19 27 33 35 31 26 23 26 26 27 28 28 24 18 11 6 9 13 15 16 19 20 20 20 20 20 19 19 19 19 18 18 18 18 18 17 17 16 15 14 13 12 11 11 11 11 10 10 10 10 9 10 10 10 10
20 20 20 21 21 21 22 22 23 23 24 25 25 25 26 26 26 25 24 23 22 23 24 25 26 26 26 23 20 18 17 18 24 30 34 34 30 26 27 27 28 28 27 24 19 13 7 11 16 17 15 17 19 20 20 20 20 20 20 19 20 20 20 19 19 19 18 17 16 15 14 14 13 12 12 11 11 11 11 10 10 9 9 10 10 10
22 22 22 23 23 23 24 24 24 25 25 25 26 26 26 26 25 25 24 23 22 22 23 23 23 24 24 24 23 22 21 20 22 27 32 34 33 29 28 28 29 30 27 25 21 17 12 14 17 19 18 16 16 18 21 21 21 21 20 20 20 20 20 19 18 18 17 16 15 14 13 12 12 12 12 12 12 11 11 11 10 10 10 9 10 10
22 23 24 24 25 25 25 24 25 26 26 26 26 26 25 25 25 24 23 22 22 22 22 22 22 22 22 21 21 21 21 19 19 22 28 32 33 31 28 28 30 31 29 26 24 21 17 15 16 17 17 15 15 16 20 23 23 22 22 21 21 21 20 19 18 17 17 16 15 14 12 11 11 10 11 11 12 12 12 12 11 11 10 10 9 9
22 23 24 24 25 25 26 25 26 26 26 26 26 26 25 24 23 23 22 21 21 21 21 22 22 21 21 20 19 18 17 17 17 19 23 27 31 32 28 29 31 31 31 29 27 24 20 17 14 14 14 15 16 18 22 25 25 24 23 23 22 21 21 20 19 18 17 16 15 14 13 12 10 10 10 11 12 13 13 13 13 13 12 11 10 10
22 22 23 24 25 26 26 26 26 26 26 26 25 25 24 23 22 22 21 21 20 20 20 21 21 20 20 19 18 17 16 16 16 17 20 24 29 31 30 30 30 31 31 30 28 26 23 20 17 15 14 14 15 18 23 26 27 26 25 23 22 22 21 21 20 19 18 17 16 15 14 13 11 10 10 11 12 13 14 14 15 15 14 14 12 12
21 22 23 24 25 26 26 26 26 26 26 25 24 24 23 22 21 21 20 20 20 19 19 19 20 19 19 18 17 16 16 15 15 16 19 23 27 31 31 30 30 30 31 29 28 26 25 22 21 21 20 18 17 19 22 25 28 28 26 24 22 22 22 22 21 20 19 18 17 16 15 14 12 11 11 11 11 13 14 14 15 15 15 15 15 14
21 22 23 23 24 25 25 25 25 25 25 25 24 23 22 22 21 20 20 20 19 19 19 19 19 18 18 17 17 16 15 15 15 16 19 23 27 30 31 30 28 29 30 29 28 26 25 23 22 22 22 21 20 21 23 26 28 29 28 25 24 25 24 22 21 21 20 19 18 17 16 14 13 12 11 11 11 11 12 13 14 14 15 15 16 16
21 21 22 24 24 24 25 25 24 24 24 24 23 23 22 22 22 21 21 20 19 19 19 19 19 18 18 17 16 16 15 15 15 17 19 23 27 30 30 28 27 26 28 28 28 26 25 23 22 22 22 22 20 20 21 26 28 29 28 27 26 24 21 22 22 21 20 20 18 17 16 15 14 13 12 11 11 10 11 12 13 14 15 15 16 16
21 22 23 24 25 25 25 25 24 23 23 23 23 23 23 23 22 22 22 21 21 20 20 20 19 19 19 18 17 16 16 16 16 18 20 23 26 28 29 28 26 24 25 27 27 26 25 24 22 21 21 22 21 21 21 24 26 28 29 28 27 21 13 18 22 22 21 20 19 18 17 16 15 14 13 12 11 11 11 12 13 14 14 15 16 16
21 22 24 24 25 25 25 24 23 23 23 23 23 23 23 23 23 23 23 22 22 21 21 21 20 20 20 19 19 18 18 18 18 19 20 22 24 25 27 27 25 23 22 24 26 26 25 23 22 20 20 20 20 20 21 23 25 26 27 27 26 24 18 16 18 22 22 21 20 19 18 17 15 14 14 13 12 12 12 12 13 14 14 15 15 15
23 23 24 25 25 25 24 24 24 24 23 24 24 23 23 23 23 23 24 23 23 23 22 22 21 21 20 20 20 20 20 20 20 20 21 22 23 24 25 26 25 23 21 21 23 25 25 24 23 21 19 18 18 19 19 21 23 25 25 25 25 24 21 14 14 18 21 21 21 19 18 17 16 15 15 14 14 14 13 13 13 13 14 14 14 14
24 24 25 25 25 25 24 25 24 24 24 23 23 23 23 23 24 24 24 24 24 24 23 23 22 21 20 21 21 22 21 21 21 21 21 22 22 23 23 23 23 21 20 19 20 22 23 24 24 22 20 19 19 18 18 18 20 22 23 23 23 22 21 15 12 14 17 19 20 19 18 17 17 16 16 16 15 15 14 14 13 13 13 13 13 13
25 26 26 26 26 25 25 25 24 24 23 23 23 23 24 24 24 24 25 25 25 25 24 23 22 22 22 23 23 23 22 21 21 21 21 21 21 20 21 20 19 18 18 17 18 19 20 21 22 22 22 21 20 19 18 17 18 19 21 21 21 21 21 18 13 11 13 15 17 18 18 18 18 17 17 16 16 15 15 14 14 13 13 12 12 12
27 27 27 26 26 25 24 24 24 24 23 23 23 24 24 24 25 25 25 25 25 25 25 23 21 21 22 23 24 24 24 23 23 22 22 21 20 20 19 18 18 17 17 17 18 18 18 18 19 20 21 22 21 21 20 18 17 18 18 19 20 21 21 18 15 12 12 13 15 16 17 18 18 18 17 16 16 15 15 14 14 13 13 13 12 12
27 27 27 26 26 25 24 24 24 24 23 23 23 24 25 25 25 25 25 26 26 25 25 23 22 21 21 22 23 24 25 24 24 23 23 22 22 21 20 20 19 19 19 19 19 19 19 18 18 19 19 19 20 21 20 19 17 17 17 18 19 20 20 18 16 14 13 13 14 15 15 16 16 16 15 15 15 15 15 14 14 13 13 13 13 12
26 26 27 26 26 25 25 25 25 24 23 23 24 25 25 25 25 25 25 26 26 25 24 24 23 22 21 22 23 24 24 24 24 23 23 24 24 23 23 22 22 21 20 20 19 19 18 18 18 19 19 18 17 18 18 19 18 17 17 17 18 18 18 17 16 15 14 14 14 14 14 14 14 13 13 14 14 14 14 14 14 13 13 13 13 12
26 26 26 26 26 25 25 25 25 24 23 23 24 25 26 25 25 24 24 25 25 25 24 24 24 22 22 22 23 24 24 24 24 23 24 25 25 25 24 24 24 23 21 18 17 17 16 14 13 15 19 19 18 17 16 18 19 19 19 19 18 17 17 17 16 15 14 14 14 14 14 14 13 13 14 14 14 14 14 14 13 13 13 13 12 12
Wind_Direction
183 186 188 192 191 191 194 202 206 208 211 210 203 196 193 191 191 192 193 194 196 198 197 197 198 201 203 204 205 206 206 205 204 204 205 207 211 216 222 229 236 243 248 248 244 235 225 214 204 196 191 185 180 174 168 163 158 155 155 162 172 179 183 185 186 189 192 191 189 188 188 191 192 193 198 204 208 205 195 181 152 136 131 123 113 101
173 177 180 188 190 189 191 198 204 206 205 199 191 185 185 185 187 190 192 194 197 198 197 197 198 200 202 201 202 203 203 202 202 202 203 205 209 213 219 225 231 237 240 239 235 230 222 216 209 204 200 197 193 188 182 175 168 163 159 159 162 166 172 176 179 181 180 177 171 170 178 185 188 189 194 200 201 196 186 172 153 141 136 127 115 102
164 167 174 183 188 189 188 190 195 199 199 191 184 180 181 182 185 187 190 192 195 197 197 197 199 200 201 201 201 201 201 200 200 200 202 204 207 210 215 220 225 229 231 229 226 222 219 214 210 206 203 201 200 198 195 188 180 173 168 164 162 160 160 161 164 167 169 171 172 174 179 182 184 184 183 186 188 187 186 182 167 154 146 134 120 105
163 166 174 181 186 189 188 186 186 189 190 186 182 180 180 182 185 188 190 192 193 195 197 199 200 202 201 201 200 201 200 200 199 200 202 203 205 208 211 214 217 221 222 220 217 215 213 211 209 206 205 203 202 201 200 196 191 184 178 173 170 168 166 165 167 169 172 175 178 180 180 180 179 176 175 175 177 181 187 189 179 163 153 140 125 107
165 169 176 179 182 186 189 186 184 184 184 183 182 181 182 184 187 190 192 194 195 195 197 200 203 204 204 202 201 200 200 200 200 201 202 203 205 206 208 209 211 214 216 215 211 208 207 206 206 206 205 205 204 204 203 201 198 194 189 184 180 178 177 177 177 178 180 181 183 183 181 177 174 173 173 173 173 170 163 169 174 164 154 143 131 117
167 173 178 178 179 182 186 187 185 183 182 182 183 183 185 187 189 191 193 195 196 197 199 202 204 206 206 205 203 201 200 199 199 200 201 202 203 204 205 206 209 212 215 212 208 204 202 202 203 204 205 206 207 207 206 205 204 203 200 196 193 190 188 187 187 186 187 187 186 185 182 179 176 174 174 171 166 155 135 116 133 153 152 145 137 126
168 174 177 177 179 183 185 187 187 185 182 181 182 184 187 189 191 192 193 194 196 197 198 201 203 204 205 205 203 200 197 197 197 198 199 200 200 201 203 205 209 212 213 210 206 201 199 198 199 200 202 204 207 209 210 210 210 209 208 206 204 201 199 196 195 194 194 193 192 190 187 184 182 180 178 175 169 156 137 116 114 134 143 143 139 131
165 172 176 178 181 183 184 187 189 189 185 181 180 182 186 189 191 193 193 194 194 194 195 196 197 199 200 201 200 198 194 193 192 192 193 194 195 197 200 203 207 211 211 210 206 201 196 194 192 192 194 198 202 206 210 212 212 213 212 211 210 209 207 205 202 200 199 199 198 196 195 193 191 190 188 185 181 172 155 134 119 118 126 133 133 128
167 171 178 182 181 179 179 183 189 191 190 186 182 180 182 184 187 189 191 191 191 192 192 191 190 191 193 194 195 194 193 192 190 190 190 190 192 194 197 200 204 207 209 209 206 201 195 190 186 183 184 187 193 200 206 210 212 213 214 213 213 211 210 208 206 205 203 203 202 201 201 199 199 198 197 195 193 187 178 159 137 122 119 123 126 124
173 174 177 183 184 181 176 178 186 191 193 190 187 184 182 181 180 181 183 185 188 190 191 190 188 186 186 188 189 190 190 190 191 191 191 192 193 194 197 198 201 203 206 208 205 200 194 187 182 177 173 175 182 192 200 205 208 211 212 212 212 210 208 207 206 205 203 203 202 202 202 202 202 202 202 201 200 199 195 182 158 139 127 125 124 122
173 175 176 178 182 184 182 181 184 188 192 193 191 188 186 183 180 177 176 180 184 186 187 189 188 186 182 183 185 187 187 185 185 186 188 190 191 193 196 197 198 199 202 204 202 197 192 187 181 173 165 161 169 184 196 203 206 207 208 209 208 206 205 204 204 204 202 202 201 201 201 201 203 204 204 205 205 206 205 192 167 148 134 129 126 124
169 173 175 176 178 180 181 182 183 185 188 189 188 189 190 188 185 181 177 178 180 182 183 185 187 187 185 182 183 185 185 183 182 181 181 183 186 188 190 190 190 191 195 198 197 194 190 186 181 172 159 146 149 174 201 208 209 207 205 204 202 201 200 200 201 201 200 200 200 199 200 202 203 204 205 208 210 210 204 187 166 150 137 129 126 127
171 172 173 174 176 177 177 176 176 179 183 186 187 189 191 189 187 185 183 182 181 182 183 183 184 186 187 187 186 184 184 182 182 182 181 181 183 186 188 187 186 188 193 195 194 191 189 187 184 177 161 139 116 158 222 222 217 212 206 202 199 197 196 195 195 195 194 194 195 195 196 199 201 203 205 207 208 204 193 175 161 150 139 131 128 131
167 169 169 172 177 180 179 176 175 179 186 190 192 192 190 189 187 186 185 183 183 183 183 181 181 182 184 186 187 187 185 182 181 181 181 183 186 189 191 190 191 193 197 196 194 192 189 188 187 184 173 157 83 308 254 234 224 216 209 203 199 196 194 191 189 186 185 185 187 188 189 191 193 195 197 198 197 190 178 167 159 151 142 135 133 134
167 167 170 176 182 184 184 182 182 186 192 194 193 192 190 188 187 186 183 180 180 181 180 179 179 180 182 183 185 187 187 184 180 179 179 183 188 193 196 195 196 198 200 198 196 194 192 190 189 187 186 197 287 290 264 237 225 218 211 205 201 198 195 190 184 178 174 174 175 177 177 178 179 180 181 181 179 173 167 163 159 153 146 141 138 136
175 175 179 184 188 190 191 190 190 191 192 192 191 189 186 184 185 186 184 179 177 176 175 173 175 180 184 185 185 185 186 184 182 180 179 181 186 192 198 198 197 198 200 199 197 195 193 192 193 195 203 227 271 282 264 237 224 216 211 206 203 201 197 191 183 174 167 164 164 164 164 164 165 166 168 167 166 164 163 162 160 156 151 148 145 141
183 184 188 191 193 195 195 194 193 192 190 189 189 189 187 186 186 186 184 180 176 175 176 177 178 182 190 190 188 186 186 184 183 182 181 181 184 190 197 201 200 199 200 199 197 196 194 195 198 203 212 233 258 266 253 234 220 213 209 205 203 201 198 193 184 174 164 159 157 157 157 156 156 158 160 161 161 161 162 162 162 160 156 153 150 146
190 192 194 195 196 196 195 193 193 192 190 187 187 189 191 190 189 186 184 182 179 177 181 184 187 189 188 193 191 189 186 184 182 181 181 182 185 189 195 201 204 204 201 199 198 198 198 199 202 208 217 234 249 252 242 226 214 208 205 203 201 200 197 192 184 175 165 159 157 156 156 155 155 156 158 160 161 162 163 164 164 163 161 159 156 152
197 198 198 200 200 198 194 193 192 191 189 186 185 185 187 189 189 187 186 185 184 184 185 189 193 194 193 194 193 191 188 186 184 181 179 181 185 189 192 198 204 206 204 201 200 201 201 203 207 213 220 231 240 239 230 215 206 202 202 202 200 197 193 187 182 175 167 161 158 158 158 157 156 156 159 162 163 164 165 166 167 167 166 164 162 159
200 201 202 202 199 196 193 195 195 193 190 188 186 185 185 187 188 188 188 189 190 191 191 192 196 198 196 194 193 192 189 187 184 182 182 183 186 189 192 196 200 203 203 202 202 203 203 205 210 216 222 228 232 231 222 210 202 200 202 201 199 195 188 183 178 174 169 164 161 160 160 159 158 157 159 162 165 167 168 170 171 171 170 169 167 165
202 204 204 202 198 195 197 199 199 197 195 192 188 185 185 186 187 189 190 190 191 192 194 196 199 200 198 195 193 193 192 189 184 181 182 184 187 190 193 196 200 202 202 202 203 204 205 207 211 216 220 224 227 226 219 207 200 199 200 200 198 192 184 178 175 173 171 168 165 164 163 161 160 159 160 162 164 167 171 174 176 176 176 175 173 172
205 206 206 203 200 199 201 201 201 200 200 196 191 187 187 186 187 189 191 190 191 193 195 200 202 202 202 201 199 197 195 193 189 185 181 182 188 193 194 196 199 202 203 203 203 204 206 207 211 215 219 222 223 221 214 204 199 198 199 200 198 190 181 175 172 172 173 172 170 168 166 164 163 162 162 162 162 165 170 175 179 181 181 181 180 179
210 209 208 205 205 205 206 205 204 204 204 202 198 196 195 194 193 192 193 193 194 195 196 198 200 201 202 203 202 200 198 196 195 191 184 182 190 195 194 195 199 202 204 203 203 204 207 208 210 213 216 218 219 217 210 202 198 197 199 200 198 189 179 173 171 172 174 174 173 171 169 167 166 164 164 163 162 163 167 173 178 183 185 186 186 185
216 215 214 211 209 209 210 209 208 206 206 206 206 205 204 204 203 202 200 199 197 196 196 197 196 195 196 198 196 195 196 197 196 194 190 188 192 195 195 196 198 201 204 205 205 206 208 209 211 213 213 214 214 212 206 200 197 197 199 200 197 188 178 172 171 172 175 174 173 172 171 169 168 167 166 164 163 163 165 169 174 179 183 186 188 189
219 220 220 217 213 211 212 212 211 209 207 206 205 204 203 203 203 202 200 198 196 194 192 189 184 180 183 185 186 188 193 195 196 196 194 191 190 193 196 197 198 199 202 205 206 207 208 209 212 213 212 210 209 207 202 198 197 197 199 200 195 187 178 173 171 173 174 173 172 171 171 170 169 169 168 168 166 164 165 167 170 174 179 183 187 190
217 218 218 215 212 210 211 212 213 211 208 206 203 200 197 196 195 193 191 189 189 187 182 177 174 174 177 177 180 185 190 193 195 197 197 192 186 189 195 198 199 199 201 202 204 205 206 208 210 212 211 207 204 202 199 196 195 196 198 198 193 185 178 175 173 173 173 173 172 171 171 171 171 172 172 172 170 168 168 169 171 173 177 181 185 189
210 209 207 205 204 204 206 208 210 209 207 205 202 200 197 194 189 183 179 182 184 183 178 177 177 175 175 176 181 186 190 192 194 197 199 196 187 184 192 197 198 198 198 199 200 201 202 205 208 210 209 206 202 199 195 193 193 196 198 197 191 184 179 176 175 174 174 173 172 172 172 172 174 176 176 176 175 175 174 174 176 178 182 183 184 186
204 202 200 198 198 200 202 205 206 206 205 204 203 201 198 194 187 179 178 184 186 184 182 184 181 175 177 183 187 189 190 191 193 196 200 198 190 183 190 193 194 194 191 191 193 197 199 203 207 209 208 205 201 197 192 190 192 195 197 196 190 184 180 179 177 176 175 174 173 173 173 174 176 178 179 179 179 179 179 180 184 188 189 187 185 186
204 203 201 200 200 201 203 204 204 204 204 203 203 202 201 199 194 189 189 191 188 185 186 189 188 183 180 183 186 189 192 193 194 196 198 196 190 186 190 188 189 188 184 179 181 189 198 203 205 206 205 203 200 196 191 189 191 194 195 195 189 184 182 181 180 178 177 176 175 175 175 176 178 180 181 181 182 182 182 185 191 196 196 193 191 190
203 203 202 202 203 204 204 202 201 201 201 202 202 203 204 204 203 202 200 196 190 186 188 190 188 182 175 173 176 186 197 199 197 196 196 192 186 184 185 182 183 184 180 171 165 176 199 204 204 202 201 200 197 193 189 188 190 192 193 192 188 185 185 183 182 180 179 177 177 176 177 178 180 182 183 184 184 184 186 191 198 202 202 200 200 199
201 200 199 199 200 201 201 199 197 196 196 198 200 202 204 206 207 207 206 201 195 191 190 188 185 181 175 171 169 183 204 204 199 196 195 191 186 182 181 177 180 184 184 176 165 154 194 201 201 200 196 195 194 192 189 188 189 191 191 189 188 187 186 185 183 181 179 178 178 178 178 179 181 183 185 186 187 187 188 195 201 205 205 205 205 203
197 197 196 195 195 195 195 193 191 190 191 193 197 200 203 205 207 209 209 207 203 199 194 190 187 185 183 185 189 194 198 202 199 196 195 191 187 185 183 179 178 181 186 186 179 167 164 186 194 195 192 192 191 190 189 189 190 192 191 189 187 186 185 184 183 181 180 179 179 179 179 181 182 184 187 188 188 189 189 195 201 204 203 203 200 195
192 192 191 191 189 188 188 187 186 186 188 191 195 199 202 205 207 210 212 212 210 206 200 194 190 188 189 192 195 198 199 200 199 197 195 192 187 183 184 181 179 180 183 186 186 181 171 170 180 186 189 190 190 190 189 190 191 193 192 189 186 184 183 184 184 183 181 180 180 180 181 183 185 187 189 190 190 190 190 195 199 201 199 195 190 185
186 185 184 183 182 182 182 183 183 185 187 191 195 198 202 204 206 209 211 213 213 212 208 204 198 193 190 191 194 197 199 201 200 199 196 194 189 184 183 181 180 180 181 183 185 186 173 168 169 175 184 188 189 190 190 191 192 193 193 190 187 185 184 186 186 186 184 183 182 182 183 185 186 189 192 193 192 192 191 194 198 200 197 193 187 183
182 181 180 179 178 178 179 181 183 185 188 192 195 199 202 204 206 208 210 211 212 213 214 214 212 207 200 195 193 195 197 202 202 200 198 197 194 188 184 183 183 183 181 183 184 181 167 168 171 172 174 182 189 192 192 193 193 193 194 193 192 190 190 190 190 190 189 188 187 186 187 187 188 190 193 194 195 194 194 195 197 200 201 199 194 191
178 177 178 178 178 178 179 181 183 186 189 193 196 199 202 204 206 207 209 210 211 212 213 216 219 219 216 212 207 205 205 207 205 203 202 202 199 194 187 187 188 187 184 184 186 185 173 166 169 173 172 175 184 191 193 193 194 194 194 195 196 197 197 196 195 194 194 192 191 191 191 191 193 195 197 198 198 198 198 197 198 200 203 205 205 203
176 176 178 179 179 179 180 181 184 187 190 193 197 200 202 204 205 207 209 210 211 211 212 213 216 219 221 223 223 222 221 218 213 209 207 207 205 200 193 192 193 192 188 185 185 185 177 164 163 170 173 176 181 187 190 191 192 195 196 197 198 200 201 201 201 200 200 198 197 197 198 199 202 204 206 205 203 202 201 201 201 202 204 208 211 213
176 177 178 180 181 182 182 183 186 189 192 194 197 199 201 203 204 206 208 209 210 210 211 212 213 215 217 220 224 227 228 226 223 218 214 212 209 205 199 196 195 195 194 191 189 185 177 166 163 171 180 186 187 187 188 188 190 193 196 198 200 202 204 205 205 205 205 204 204 204 206 208 210 212 213 211 208 206 203 201 201 201 202 204 209 214
178 178 179 180 182 184 185 186 188 191 194 195 197 199 200 201 203 204 205 207 208 209 210 211 212 213 214 215 217 219 222 224 225 224 221 216 212 208 204 200 197 197 197 197 195 191 185 179 176 178 182 186 189 190 189 189 190 192 193 196 200 204 207 208 209 209 209 208 209 210 212 215 217 218 218 215 213 210 207 204 202 202 201 201 203 207
180 181 181 183 185 187 188 188 191 193 194 195 196 198 198 199 199 200 202 204 206 207 208 210 211 211 212 212 212 212 214 217 219 221 220 216 212 209 207 205 201 198 197 197 198 197 195 191 190 190 187 185 185 187 189 191 192 192 191 192 196 201 206 209 210 211 212 212 213 214 216 219 221 222 220 217 214 212 210 208 206 206 205 205 204 204
182 182 182 184 186 188 190 192 194 194 194 194 195 195 196 197 196 196 197 199 201 203 205 206 207 207 207 207 207 207 208 210 212 214 214 212 209 208 208 208 207 203 198 197 199 201 202 200 199 197 194 189 186 186 188 192 193 193 192 192 195 199 202 206 210 212 213 214 215 217 219 222 224 224 222 218 214 211 210 210 210 210 211 211 211 210
183 183 183 184 186 187 191 193 194 194 195 196 195 195 196 197 196 195 194 193 194 197 200 201 200 198 195 196 198 200 202 204 205 206 206 206 205 205 207 209 210 208 203 200 200 202 206 207 206 203 199 194 187 184 188 193 195 196 196 197 198 198 201 207 211 213 214 215 215 217 220 222 224 224 222 218 214 209 208 209 211 213 214 215 216 217
184 185 186 186 187 189 191 192 193 194 195 196 196 198 199 200 199 197 195 193 192 193 194 196 195 192 186 183 184 188 193 196 198 199 200 201 202 203 205 207 210 210 208 203 201 202 206 209 211 211 209 204 196 188 186 190 194 197 200 201 199 195 196 206 210 212 214 215 215 216 218 221 222 222 221 219 216 212 210 210 211 212 214 215 217 218
184 186 187 187 188 190 191 191 192 193 195 196 197 199 200 202 202 200 196 194 192 191 191 192 193 190 183 177 175 178 182 188 192 195 196 197 199 202 204 206 209 211 212 209 205 203 204 206 209 212 212 210 204 198 193 191 192 196 200 203 203 200 199 203 208 210 213 214 215 215 216 218 219 219 219 219 218 216 215 214 214 214 214 215 216 217
184 184 185 186 187 188 188 191 193 195 196 198 199 200 200 201 202 201 198 194 191 190 189 190 187 181 173 172 172 174 176 182 187 191 194 196 199 202 205 207 209 212 214 216 215 211 206 203 203 205 207 207 206 204 200 195 193 195 198 202 205 206 207 209 210 210 211 213 213 213 213 214 214 216 217 218 218 219 218 218 218 218 217 217 216 217
182 182 182 184 186 186 187 190 193 194 196 198 199 200 200 200 201 200 199 195 191 188 188 189 185 177 171 170 171 172 173 177 182 187 192 196 199 203 206 208 211 213 215 217 220 220 216 209 204 200 198 198 202 206 207 202 196 194 195 198 201 204 205 208 210 210 210 211 211 210 209 209 210 212 214 217 218 219 220 221 221 221 220 219 219 218
181 181 181 183 184 185 187 189 191 191 192 194 197 198 198 198 198 198 198 196 192 187 186 187 186 182 177 175 173 172 172 173 178 183 188 193 196 200 203 205 207 208 210 211 213 216 217 215 210 204 197 193 194 199 205 205 201 196 194 194 195 198 200 202 202 201 203 206 206 206 205 206 207 210 213 216 218 220 221 222 221 221 221 220 220 219
182 182 181 182 182 182 184 186 188 188 189 191 194 196 196 196 195 194 194 193 191 187 183 183 183 183 181 180 179 179 177 176 177 180 184 188 191 193 195 196 196 196 197 199 201 202 204 206 207 207 204 199 195 195 198 200 201 199 195 192 191 194 196 197 195 191 191 195 198 201 202 204 206 209 212 215 219 221 222 221 220 219 218 219 219 220
184 182 182 181 180 180 181 184 186 187 187 188 190 191 193 194 194 193 192 191 190 187 183 182 181 181 180 180 182 182 181 180 179 180 182 184 185 186 186 187 186 186 187 190 191 193 193 194 196 200 204 206 204 200 198 196 196 197 196 193 192 193 194 194 193 191 189 188 190 195 200 205 208 211 213 215 220 223 223 222 220 218 217 217 218 219
184 184 183 181 181 181 182 184 184 185 185 186 186 187 188 190 191 193 193 192 190 188 186 185 184 182 180 181 182 182 181 180 178 178 180 182 184 183 182 183 182 181 180 182 184 186 188 190 193 197 201 206 209 208 202 195 191 191 193 194 195 195 195 194 194 194 193 190 190 192 197 202 207 211 215 218 222 225 226 224 221 217 215 216 217 217
182 183 183 183 182 183 183 184 184 184 184 184 185 185 185 186 187 190 191 191 190 189 189 189 188 186 184 184 184 185 184 182 179 178 179 181 183 183 182 182 181 178 174 173 175 178 181 184 192 200 205 205 208 210 208 200 192 189 191 194 196 197 197 197 198 198 198 197 196 196 198 201 204 208 212 216 220 224 227 227 222 217 214 214 215 215